Regional Weather Roundup
Issued by NWS

Home | Current Version | Previous Version | Text Only | Print | Product List | Glossary Off
Versions: 1 2 3 4 5 6 7 8 9 10 11 12 13 14 15 16 17 18 19 20 21 22 23 24 25 26 27 28 29 30 31 32 33 34 35 36 37 38 39 40 41 42 43 44 45 46 47 48 49 50

000
ASUS45 KABQ 051510
RWRNM
NEW MEXICO REGIONAL WEATHER ROUNDUP
NATIONAL WEATHER SERVICE ALBUQUERQUE NM
800 AM MST MON DEC 05 2016

NOTE: "FAIR" MEANS FEW OR NO CLOUDS BELOW 12,000 FEET AGL WITH NO
       SIGNIFICANT WEATHER OR OBSTRUCTIONS TO VISION.

      THIS PRODUCT IS RELEASED AS TWO VERSIONS.  ONE VERSION NEAR
      THE TOP OF THE HOUR CONTAINING PRELIMINARY DATA FROM ALBUQUERQUE
      AND OTHER STATIONS.  A FINAL VERSION WITH ADDITIONAL DATA IS
      ISSUED ABOUT 10 MINUTES AFTER THE HOUR.

NMZ501-503-504-510>518-051600-
NORTHWEST PLATEAU/NORTHCENTRAL MOUNTAINS

CITY           SKY/WX    TMP DP  RH WIND       PRES   REMARKS
FARMINGTON     FAIR      24  20  84 E7        29.90S WCI  16
LOS ALAMOS     FAIR      32  16  51 SE3       29.90S
SANTA FE       FAIR      26  17  68 N9        29.89S WCI  17
TAOS           FAIR      19   9  63 N3        29.90S
ANGEL FIRE     FAIR      32  11  41 SW13      29.87R WCI  22

$$
NMZ402-403-502-505>509-051600-
WESTCENTRAL MOUNTAINS/SOUTHWEST MOUNTAINS

CITY           SKY/WX    TMP DP  RH WIND       PRES   REMARKS
GALLUP         FAIR      19  15  84 CALM      29.94F
GRANTS         FAIR      20  16  85 NW7       29.95S WCI  11

$$
NMZ407-409-411-412-051600-
SOUTHERN DESERTS

CITY           SKY/WX    TMP DP  RH WIND       PRES   REMARKS
DEMING         FAIR      34  28  79 W9        29.96S WCI  27
LAS CRUCES     FAIR      35  26  70 SW3       29.95S
T OR C         FAIR      34  18  52 W3        29.93R

$$
NMZ519>523-051600-
CENTRAL VALLEYS/CENTRAL HIGHLANDS

CITY           SKY/WX    TMP DP  RH WIND       PRES   REMARKS
ALBUQUERQUE    FAIR      31  15  52 CALM      29.92F
DOUBLE EAGLE   PTCLDY    25  18  74 CALM      29.92F
MORIARTY ARPT  FAIR      22  14  72 NE3       29.88F
CLINES CORNERS FAIR      25  11  55 NW8       29.86F WCI  16
BELEN          FAIR      25  18  73 CALM      29.92F
SOCORRO        FAIR      26  15  63 SE5       29.94S WCI  20

$$
NMZ524>526-539-540-051600-
SOUTHCENTRAL MOUNTAINS

CITY           SKY/WX    TMP DP  RH WIND       PRES   REMARKS
RUIDOSO        FAIR      36  12  38 W9        29.91S WCI  29

$$
NMZ527>531-051600-
NORTHEAST HIGHLANDS/NORTHEAST PLAINS

CITY           SKY/WX    TMP DP  RH WIND       PRES   REMARKS
LAS VEGAS      FAIR      36  14  40 SW15      29.75F WCI  27
RATON          FAIR      21  13  71 NE8       29.70F WCI  11
CLAYTON        FAIR      42  23  46 W12       29.64F

$$
NMZ532>537-051600-
EASTCENTRAL PLAINS

CITY           SKY/WX    TMP DP  RH WIND       PRES   REMARKS
TUCUMCARI      FAIR      41  21  44 SW16      29.71F
CANNON AFB     NOT AVBL
CLOVIS AIRPORT FAIR      34  28  80 SW17      29.76F WCI  23

$$
NMZ028-029-538-051600-
SOUTHEAST PLAINS

CITY           SKY/WX    TMP DP  RH WIND       PRES   REMARKS
ROSWELL        FOG       26  25  96 SE6       29.83F VSB 1/4 WCI  19
ARTESIA        FAIR      28  28 100 W5        29.84F WCI  23
CARLSBAD       FOG       28  28 100 E5        29.84F VSB 3/4 WCI  23
HOBBS          SUNNY     34  34 100 SW6       29.86R WCI  29


$$




USA.gov is the U.S. government's official web portal to all federal, state and local government web resources and services.